Date String (YYYY-MM-DD hh:mm:ss) UTC,Instrument flags,absolute air pressure of the measurement (hPa),sample flow rate (lpm),inlet stack bypass flow (lpm),air temperature of the measurement (°C),ambient temperature measured by the external sensor (°C),aerosol sample conditioner tube jacket temperature (°C),OPC LED temperature (°C),internal box temperature (°C),relative humidity of the measurement (%),span deviation,mass concentration of particles derived from Lorenz-Mie calculation of OPC scattering (μg/m³),mass concentration of particles derived from Lorenz-Mie calculation of OPC scattering (μg/m³),mass concentration of particles derived from Lorenz-Mie calculation of OPC scattering (μg/m³)
DateTimeUTC,F1_M11,P_M11,Q1_M11,Q2_M11,T1_M11,T2_M11,T3_M11,T4_M11,T5_M11,U1_M11,ZSPAN_M11,X0_M11,X2_M11,X1_M11
2024-01-22 14:00:00,SystemResetWarning,0823.2,5.00,000.00,020.4,019.5,000.0,028.7,021.7,17.1,0004.4,0009.60,0005.50,0005.29
2024-01-22 14:01:00,SystemResetWarning,0823.3,5.00,000.00,020.4,019.5,000.0,028.7,021.7,17.1,0004.4,0010.08,0005.61,0005.41
2024-01-22 14:02:00,SystemResetWarning,0823.3,5.00,000.00,020.4,019.5,000.0,028.7,021.7,17.1,0004.5,0009.87,0005.73,0005.53
2024-01-22 14:03:00,SystemResetWarning,0823.3,4.99,000.00,020.4,019.5,000.0,028.7,021.7,17.2,0004.5,0009.75,0005.79,0005.58
2024-01-22 14:04:00,SystemResetWarning,0823.3,5.00,000.00,020.4,019.4,000.0,028.7,021.7,17.2,0004.4,0009.71,0005.72,0005.51
2024-01-22 14:05:00,SystemResetWarning,0823.3,4.99,000.00,020.4,019.4,000.0,028.7,021.7,17.3,0004.3,0009.52,0005.58,0005.39
2024-01-22 14:06:00,SystemResetWarning,0823.3,5.00,000.00,020.4,019.4,000.0,028.7,021.7,17.2,0004.1,0009.29,0005.41,0005.22
2024-01-22 14:07:00,SystemResetWarning,0823.3,5.00,000.00,020.4,019.4,000.0,028.7,021.7,17.1,0004.4,0009.11,0005.27,0005.09
2024-01-22 14:08:00,SystemResetWarning,0823.3,5.00,000.00,020.4,019.4,000.0,028.7,021.7,17.1,0004.4,0009.04,0005.20,0005.02
2024-01-22 14:09:00,SystemResetWarning,0823.3,5.01,000.00,020.4,019.4,000.0,028.7,021.7,17.1,0004.4,0009.02,0005.16,0004.98
2024-01-22 14:10:00,SystemResetWarning,0823.3,5.01,000.00,020.4,019.4,000.0,028.7,021.7,17.1,0004.3,0008.99,0005.13,0004.96
2024-01-22 14:11:00,SystemResetWarning,0823.3,5.00,000.00,020.4,019.4,000.0,028.7,021.7,17.0,0004.1,0008.83,0005.16,0004.98
2024-01-22 14:12:00,SystemResetWarning,0823.3,4.99,000.00,020.4,019.4,000.0,028.7,021.7,17.0,0004.3,0008.46,0005.23,0005.05
2024-01-22 14:13:00,SystemResetWarning,0823.3,4.99,000.00,020.3,019.4,000.0,028.7,021.7,17.0,0004.0,0008.60,0005.34,0005.16
2024-01-22 14:14:00,SystemResetWarning,0823.3,5.00,000.00,020.3,019.4,000.0,028.7,021.7,17.0,0003.8,0008.83,0005.49,0005.29
2024-01-22 14:15:00,SystemResetWarning,0823.3,5.01,000.00,020.3,019.4,000.0,028.7,021.7,17.0,0003.7,0008.90,0005.52,0005.32
2024-01-22 14:16:00,SystemResetWarning,0823.4,5.01,000.00,020.3,019.4,000.0,028.7,021.7,17.0,0003.8,0009.06,0005.61,0005.40
2024-01-22 14:17:00,SystemResetWarning,0823.4,4.99,000.00,020.3,019.4,000.0,028.7,021.7,17.0,0004.0,0009.37,0005.76,0005.54
2024-01-22 14:18:00,SystemResetWarning,0823.5,5.00,000.00,020.3,019.4,000.0,028.7,021.7,17.0,0004.1,0009.68,0005.87,0005.63
2024-01-22 14:19:00,SystemResetWarning,0823.4,4.99,000.00,020.3,019.4,000.0,028.7,021.7,17.0,0004.1,0010.51,0005.92,0005.66
2024-01-22 14:20:00,SystemResetWarning,0823.4,5.00,000.00,020.3,019.4,000.0,028.7,021.7,17.0,0003.9,0010.70,0005.89,0005.63
2024-01-22 14:21:00,SystemResetWarning,0823.4,5.00,000.00,020.3,019.4,000.0,028.7,021.7,17.0,0003.9,0010.72,0005.89,0005.63
2024-01-22 14:22:00,SystemResetWarning,0823.5,5.01,000.00,020.3,019.4,000.0,028.7,021.7,17.0,0003.9,0010.74,0005.89,0005.61
2024-01-22 14:23:00,SystemResetWarning,0823.5,5.01,000.00,020.3,019.4,000.0,028.7,021.7,17.0,0003.7,0010.75,0005.86,0005.58
2024-01-22 14:24:00,SystemResetWarning,0823.5,5.00,000.00,020.3,019.4,000.0,028.7,021.6,16.9,0003.7,0010.77,0005.86,0005.55
2024-01-22 14:25:00,SystemResetWarning,0823.5,4.99,000.00,020.3,019.4,000.0,028.7,021.6,16.9,0003.7,0010.67,0005.81,0005.51
2024-01-22 14:26:00,SystemResetWarning,0823.5,4.99,000.00,020.3,019.4,000.0,028.7,021.7,17.0,0003.9,0010.73,0005.89,0005.59
2024-01-22 14:27:00,SystemResetWarning,0823.5,4.99,000.00,020.3,019.4,000.0,028.7,021.7,17.0,0003.9,0010.91,0006.01,0005.69
2024-01-22 14:28:00,SystemResetWarning,0823.5,5.00,000.00,020.3,019.4,000.0,028.7,021.7,16.9,0003.8,0010.87,0006.01,0005.69
2024-01-22 14:29:00,SystemResetWarning,0823.5,5.00,000.00,020.3,019.4,000.0,028.7,021.7,16.9,0003.9,0010.65,0005.95,0005.64
2024-01-22 14:30:00,SystemResetWarning,0823.5,5.01,000.00,020.3,019.4,000.0,028.7,021.7,16.9,0003.8,0010.08,0005.93,0005.63
2024-01-22 14:31:00,SystemResetWarning,0823.5,5.00,000.00,020.3,019.4,000.0,028.7,021.6,16.9,0003.9,0009.91,0005.94,0005.65
2024-01-22 14:32:00,SystemResetWarning,0823.5,5.00,000.00,020.3,019.4,000.0,028.7,021.7,16.9,0003.8,0009.70,0005.92,0005.63
2024-01-22 14:33:00,SystemResetWarning,0823.5,5.00,000.00,020.3,019.4,000.0,028.7,021.6,16.9,0003.9,0009.57,0005.86,0005.59
2024-01-22 14:34:00,SystemResetWarning,0823.5,4.98,000.00,020.3,019.4,000.0,028.7,021.7,16.9,0003.8,0009.49,0005.83,0005.57
2024-01-22 14:35:00,SystemResetWarning,0823.5,4.99,000.00,020.3,019.4,000.0,028.7,021.7,16.9,0003.8,0009.38,0005.77,0005.52
2024-01-22 14:36:00,SystemResetWarning,0823.5,5.01,000.00,020.3,019.4,000.0,028.7,021.7,17.0,0003.8,0009.32,0005.71,0005.47
2024-01-22 14:37:00,SystemResetWarning,0823.5,5.01,000.00,020.3,019.4,000.0,028.7,021.7,17.0,0003.8,0009.25,0005.65,0005.41
2024-01-22 14:38:00,SystemResetWarning,0823.5,5.00,000.00,020.3,019.4,000.0,028.7,021.7,17.0,0003.9,0009.03,0005.51,0005.30
2024-01-22 14:39:00,SystemResetWarning,0823.5,5.00,000.00,020.3,019.4,000.0,028.7,021.7,17.0,0004.0,0008.95,0005.45,0005.24
2024-01-22 14:40:00,SystemResetWarning,0823.5,4.99,000.00,020.3,019.5,000.0,028.7,021.7,17.0,0004.0,0008.93,0005.46,0005.24
2024-01-22 14:41:00,SystemResetWarning,0823.6,4.99,000.00,020.3,019.5,000.0,028.7,021.7,17.0,0004.0,0008.70,0005.45,0005.24
2024-01-22 14:42:00,SystemResetWarning,0823.6,5.01,000.00,020.3,019.5,000.0,028.7,021.7,17.0,0004.1,0008.60,0005.42,0005.21
2024-01-22 14:43:00,SystemResetWarning,0823.6,5.01,000.00,020.3,019.5,000.0,028.7,021.7,17.0,0004.3,0009.21,0005.41,0005.19
2024-01-22 14:44:00,SystemResetWarning,0823.6,5.01,000.00,020.3,019.5,000.0,028.7,021.7,17.0,0004.3,0009.36,0005.37,0005.16
2024-01-22 14:45:00,SystemResetWarning,0823.6,5.00,000.00,020.3,019.5,000.0,028.7,021.7,17.0,0004.4,0009.29,0005.32,0005.12
2024-01-22 14:46:00,SystemResetWarning,0823.6,4.99,000.00,020.3,019.5,000.0,028.7,021.7,17.0,0004.4,0009.29,0005.30,0005.10
2024-01-22 14:47:00,SystemResetWarning,0823.6,5.00,000.00,020.3,019.5,000.0,028.7,021.7,17.0,0004.3,0009.23,0005.27,0005.07
2024-01-22 14:48:00,SystemResetWarning,0823.6,5.00,000.00,020.3,019.5,000.0,028.7,021.7,17.0,0004.4,0009.64,0005.23,0005.04
2024-01-22 14:49:00,SystemResetWarning,0823.7,5.00,000.00,020.3,019.5,000.0,028.7,021.7,17.0,0004.2,0009.87,0005.22,0005.02
2024-01-22 14:50:00,SystemResetWarning,0823.7,5.00,000.00,020.3,019.5,000.0,028.7,021.7,17.0,0004.2,0009.79,0005.19,0004.99
2024-01-22 14:51:00,SystemResetWarning,0823.7,5.00,000.00,020.3,019.5,000.0,028.7,021.7,17.0,0004.0,0009.85,0005.17,0004.97
2024-01-22 14:52:00,SystemResetWarning,0823.7,5.00,000.00,020.3,019.5,000.0,028.7,021.7,17.0,0003.8,0009.86,0005.11,0004.91
2024-01-22 14:53:00,SystemResetWarning,0823.7,5.01,000.00,020.3,019.5,000.0,028.7,021.7,16.9,0003.8,0009.79,0005.05,0004.83
2024-01-22 14:54:00,SystemResetWarning,0823.6,5.00,000.00,020.3,019.5,000.0,028.7,021.7,16.8,0003.7,0009.26,0004.99,0004.79
2024-01-22 14:55:00,SystemResetWarning,0823.7,5.00,000.00,020.3,019.5,000.0,028.7,021.7,16.7,0003.8,0008.80,0004.93,0004.74
2024-01-22 14:56:00,SystemResetWarning,0823.7,4.99,000.00,020.3,019.5,000.0,028.7,021.7,16.7,0003.6,0008.77,0004.90,0004.70
2024-01-22 14:57:00,SystemResetWarning,0823.7,4.99,000.00,020.3,019.5,000.0,028.7,021.7,16.7,0003.7,0008.78,0004.89,0004.70
2024-01-22 14:58:00,SystemResetWarning,0823.8,5.00,000.00,020.3,019.5,000.0,028.7,021.7,16.8,0004.0,0008.74,0004.87,0004.68
2024-01-22 14:59:00,SystemResetWarning,0823.8,5.00,000.00,020.3,019.5,000.0,028.7,021.7,16.8,0003.7,0008.43,0004.87,0004.67
